Location: Unspecified
(50.7693°N, 0.0000°E)
Time: 06:53:09
(UTC+00:00)

Transit 2A - Pass Details

Date: 15 August 2020
Orbit: 591 x 967 km, 66.7° (Epoch: 20 September)

Event Time Altitude Azimuth Distance (km) Brightness Sun altitude
Rises 03:10:27 0° 322° (NW) 3,667 9.6 -13.7°
Reaches altitude 10° 03:13:03 10° 323° (NW) 2,714 8.9 -13.4°
Maximum altitude 03:19:29 87° 51° (NE) 951 6.5 -12.6°
Drops below altitude 10° 03:25:33 10° 143° (SE) 2,567 8.7 -11.9°
Sets 03:27:58 0° 144° (SE) 3,457 9.4 -11.6°
